Flag for Germany Weather past 2 weeks in Norderstedt, Schleswig-Holstein, Germany

Now
61 °F

Sunny.


Feels Like: 61 °F
Forecast: 48 / 63 °F
Wind: 18 mph from Southeast

Location: Hamburg-Fuhlsbuettel

Current Time: May 5, 2015 at 9:23:50 AM

Latest Report: May 5, 2015 at 8:50 AM


Visibility: 10 mi

Pressure: 29.47 "Hg

Humidity: 83%

Dew point: 55 °F

Location of NorderstedtLocation

Historic Weather in Norderstedt — Graph

°F

Norderstedt temperature yesterday

Maximum temperature yesterday: 66 °F (at 3:20 PM)
Minimum temperature yesterday: 54 °F (at 5:50 AM)
Average temperature yesterday: 59 °F

Past Weeks' High & Low Weather Summary

 TemperatureHumidityPressure
High66 °F (May 4, 3:20 PM)100% (Apr 24, 1:50 AM)30.36 "Hg (Apr 24, 1:50 AM)
Low30 °F (Apr 28, 3:50 AM)32% (Apr 20, 3:20 PM)29.47 "Hg (May 5, 7:20 AM)
Average50 °F73%29.91 "Hg
* Reported Apr 20 8:20 AM — May 5 8:20 AM, Norderstedt, Weather by CustomWeather, © 2015

Note: Actual official high and low records may vary slightly from our data, if they occured in-between our weather recording intervals... More about our weather records

Advertising

Norderstedt weather history for previous 24 hours

 ConditionsComfort  
Time TempWeatherWind HumidityBarometerVisibility
8:20 AM
Tue, May 5
59 °FSunny.16 mph88%29.47 "Hg10 mi
7:50 AM59 °FPartly sunny.14 mph88%29.47 "HgN/A
7:20 AM57 °FScattered showers. Partly sunny.13 mph88%29.47 "HgN/A
6:50 AM57 °FLight rain. Broken clouds.13 mph88%29.50 "HgN/A
6:20 AM57 °FLight rain. Mostly cloudy.13 mph88%29.50 "HgN/A
5:20 AM57 °FLight rain. Mostly cloudy.10 mph82%29.56 "HgN/A
4:50 AM59 °FClear.12 mph77%29.56 "Hg10 mi
4:20 AM57 °FClear.13 mph82%29.59 "Hg10 mi
3:50 AM57 °FClear.12 mph82%29.62 "Hg10 mi
3:20 AM57 °FClear.12 mph82%29.62 "Hg10 mi
2:50 AM57 °FClear.9 mph82%29.65 "Hg10 mi
2:20 AM57 °FClear.9 mph82%29.68 "Hg10 mi
1:50 AM57 °FClear.8 mph82%29.68 "Hg10 mi
1:20 AM55 °FClear.7 mph82%29.71 "Hg10 mi
12:50 AM54 °FClear.7 mph88%29.71 "Hg10 mi
12:20 AM54 °FClear.7 mph88%29.71 "Hg10 mi
11:50 PM
Mon, May 4
54 °FClear.7 mph88%29.74 "Hg10 mi
11:20 PM55 °FClear.6 mph82%29.74 "Hg10 mi
10:50 PM54 °FClear.7 mph88%29.74 "Hg10 mi
10:20 PM57 °FClear.7 mph77%29.77 "Hg10 mi
9:50 PM59 °FSunny.6 mph72%29.77 "Hg10 mi
9:20 PM59 °FSunny.3 mph72%29.77 "Hg10 mi
8:50 PM59 °FSunny.2 mph72%29.77 "Hg10 mi
8:20 PM63 °FPassing clouds.6 mph59%29.77 "HgN/A
7:50 PM63 °FPartly sunny.6 mph64%29.77 "HgN/A
7:20 PM64 °FPartly sunny.6 mph56%29.77 "HgN/A
6:50 PM64 °FPartly sunny.6 mph56%29.77 "HgN/A
6:20 PM66 °FBroken clouds.8 mph52%29.77 "HgN/A
5:50 PM64 °FBroken clouds.10 mph56%29.77 "HgN/A
5:20 PM66 °FScattered clouds.12 mph52%29.77 "HgN/A
4:50 PM66 °FScattered clouds.12 mph52%29.77 "HgN/A
4:20 PM64 °FScattered clouds.15 mph56%29.77 "HgN/A
3:50 PM64 °FScattered clouds.13 mph56%29.77 "HgN/A
3:20 PM66 °FScattered clouds.15 mph56%29.77 "HgN/A
2:50 PM64 °FBroken clouds.15 mph56%29.77 "HgN/A
2:20 PM63 °FBroken clouds.14 mph64%29.77 "HgN/A
1:50 PM64 °FScattered clouds.21 mph64%29.77 "HgN/A
1:20 PM63 °FBroken clouds.17 mph64%29.74 "HgN/A
12:50 PM61 °FBroken clouds.13 mph72%29.74 "HgN/A
12:20 PM59 °FLight rain. Broken clouds.10 mph72%29.74 "HgN/A
11:50 AM61 °FBroken clouds.15 mph68%29.74 "HgN/A
11:20 AM59 °FBroken clouds.15 mph77%29.71 "HgN/A
10:50 AM61 °FBroken clouds.16 mph77%29.71 "HgN/A
10:20 AM59 °FPartly sunny.15 mph77%29.71 "HgN/A
9:50 AM59 °FBroken clouds.16 mph77%29.71 "HgN/A
9:20 AM59 °FScattered clouds.14 mph77%29.68 "HgN/A
Weather by CustomWeather, © 2015

See weather overviewHow to use our weather pages